STARLINK-6136, 56540

Orbit data source: Space-Track

STARLINK-6136, 56540 is a payload satellite owned by SpaceX/Seattle (US) in LEO that was launched on Sun, 14 May 2023 UTC via an FALCON 9 launch vehicle from the Air Force Eastern Test Range (AFETR). Payload-class satellites include a variety of spacecraft equipped with specific instruments for various scientific and technological missions. These include communications satellites like Starlink; space stations such as the ISS; scientific satellites like the Hubble; Earth observation satellites from companies like Planet Labs, Umbra, and HawkEye 360; GPS; miniature CubeSats for education and research; and military/defense satellites.

Loading next visibility...
Identifier
56540, 2023-065AP
Orbit
LEO
Country
Flag of USUS
Related business
Manufacturer
SpaceX/Seattle
Mission
Operational Commercial Communications
Bus & Motor
STARLINK, Unknown motor
Mass
305 kg wet, ~290 kg dry
Launch date (UTC)
2023-05-14 (3 years ago)
Launch vehicle
FALCON 9
Launch site
Air Force Eastern Test Range (AFETR)
Object type
Payload
Rocket body
Debris
Shape & HBR
Box + 1 Pan, 10.1 m
Radar Cross Section
11.087 m², Large (>1 m²)

Expand to show TLE details & history
Last TLE update: 2 days ago

TLE from 2 days ago
0 STARLINK-6136
1 56540U 23065AP  26171.42003575  .00000534  00000-0  28921-4 0  9997
2 56540  43.0021   6.8127 0001553 271.7261  88.3413 15.27580338172140
Epoch: 2026-06-20T10:04Z
TLE epoch observation values (Epoch: 2026-06-20T10:04:51.088Z)
Latitude
-0.00002°
Longitude
-53.0351°
Altitude
482.793 km
Speed
7.626 km/s
True Right ascension
00h 27m 15s
True Declination
0° 00' 00"
Sunlit
Object was in daylight at epoch
Visualization orbit readout
Latitude
Unknown
Longitude
Unknown
Altitude
Unknown
Speed
Unknown
Apparent Right ascension
Unknown
Apparent Declination
Unknown
Sunlit
N/A
Visualization observer readout
Local Sidereal Time
21:24:39
Azimuth
Unknown
Elevation
Unknown
Doppler factor
Unknown
Orbital elements
Apogee altitude
486.059 km
Perigee altitude
483.927 km
Semi-major axis
6,863.13 km
Eccentricity
0.00016
Inclination
43.0021°
RAAN
6.8127°
Arg. of periapsis
271.7261°
True anomaly
88.35909°
Mean anomaly
88.3413°
Eccentric anomaly
88.35019°
Mean motion
3.81733 °/min
Orbital period
94.31 mins
BSTAR
0.000028921
Loading maneuver chart data...
Computing Atmospheric mass density...
Loading historical data...
Loading historical data...
Loading historical data...
Loading historical data...
Loading historical data...
Loading historical data...
Loading historical data...

Documentation

Showing up to 5 results
|